[[{"header":{"parameterUnit":"m.s-1","parameterCategory":2,"la1":30.2991,"la2":30.254,"lo1":-89.0895,"lo2":-89.0444,"dy":0.0017,"dx":0.0017,"nx":28,"ny":28,"refTime":"2024-07-27T09:00:00:Z","depth":"0","parameterNumber":2,"parameterNumberName":"U-component_of_CURRENTS"},"data":[0,0,0,0,0,0,0,0,0,0,0,0,0,0,0,0,0,0,0,0,0,0,0,0,0,0,0,0,0,0,0,0,0,0,0,0,0,0,0,0,0,0,0,0,0,0,0,0,0,0,0,0,0,0,0,0,0,0,-0.295,-0.295,0,-0.2959,-0.2959,-0.2959,-0.294,-0.294,-0.294,-0.2939,-0.285,-0.2848,-0.2846,0,0,0,0,0,0,0,0,0,0,0,0,0,-0.2856,-0.2858,-0.295,-0.295,-0.2951,-0.2959,-0.2959,-0.2958,-0.294,-0.294,-0.2939,-0.2939,-0.2851,-0.2848,-0.2846,0,0,0,0,0,0,0,0,0,0,0,0,0,-0.2881,-0.2859,-0.295,-0.2945,-0.2945,-0.2959,-0.2959,-0.2958,-0.294,-0.294,-0.2939,-0.2939,-0.2852,-0.2849,-0.2846,-0.2834,0,0,-0.2836,-0.2835,0,0,0,0,0,0,0,0,-0.288,-0.2884,-0.2945,-0.2946,-0.2946,-0.2951,-0.2893,-0.2913,-0.294,-0.2938,-0.2939,-0.2939,-0.2878,-0.2872,-0.2871,-0.283,-0.2826,-0.2836,-0.2834,-0.2832,-0.2831,0,0,0,0,0,0,0,-0.2878,-0.2883,-0.295,-0.2946,-0.2946,-0.2922,-0.2926,-0.2897,-0.2905,-0.2938,-0.2938,-0.2945,-0.2876,-0.2874,-0.2869,-0.2825,-0.2836,-0.2833,-0.2831,-0.283,-0.2792,-0.2793,0,0,0,0,0,0,-0.2888,-0.2882,-0.2949,-0.295,-0.2915,-0.2925,-0.2928,-0.2947,-0.2908,-0.2903,-0.2945,-0.2944,-0.288,-0.2872,-0.2865,-0.2866,-0.2832,-0.2829,-0.2828,-0.2791,-0.2792,-0.2793,0,0,0,0,0,0,-0.2887,-0.2895,-0.2949,-0.2918,-0.2924,-0.2928,-0.2948,-0.2947,-0.2951,-0.2915,-0.2908,-0.2951,-0.2879,-0.287,-0.2847,-0.2862,-0.2828,-0.2825,-0.279,-0.2792,-0.2793,-0.2857,0,0,0,0,0,0,-0.2884,-0.2894,-0.2909,-0.292,-0.2926,-0.2966,-0.2949,-0.2948,-0.2958,-0.2956,-0.2917,-0.2909,-0.2878,-0.2852,-0.2844,-0.2857,-0.2823,-0.2789,-0.2791,-0.2792,-0.2853,-0.286,-0.2866,0,0,0,0,0,-0.2881,-0.291,-0.291,-0.2918,-0.2948,-0.2967,-0.2968,-0.2966,-0.2958,-0.2966,-0.2938,-0.291,-0.2858,-0.285,-0.284,-0.2853,-0.2788,-0.279,-0.2792,-0.2851,-0.2859,-0.2865,0,0,0,0,0,0,-0.287,-0.2911,-0.2911,-0.2949,-0.2959,-0.2966,-0.2976,-0.2973,-0.2959,-0.2954,-0.2915,-0.2904,-0.2889,-0.2865,-0.2858,-0.2849,-0.2821,-0.2821,-0.2869,-0.2876,-0.2882,-0.2904,-0.282,0,0,0,0,0,-0.2878,-0.2911,-0.2934,-0.2959,-0.2971,-0.2973,-0.298,-0.298,-0.2972,-0.2967,-0.294,-0.2913,-0.289,-0.2879,-0.2851,-0.2844,-0.2831,-0.2849,-0.2855,-0.286,-0.2873,-0.2849,-0.2854,-0.28,-0.28,-0.28,0,0,-0.2874,-0.2905,-0.2919,-0.2959,-0.2967,-0.2996,-0.2976,-0.2994,-0.3013,-0.2957,-0.2965,-0.2928,-0.2892,-0.2884,-0.2876,-0.2866,-0.2875,-0.2863,-0.2868,-0.2878,-0.2852,-0.2857,-0.2861,-0.2801,-0.2801,-0.2801,0,0,-0.2892,-0.2918,-0.2953,-0.2975,-0.3003,-0.3011,-0.3021,-0.3031,-0.3032,-0.3029,-0.2998,-0.2976,-0.2939,-0.2925,-0.2911,-0.2936,-0.2904,-0.2926,-0.2978,-0.2954,-0.2958,-0.2962,-0.298,-0.2985,-0.2934,-0.2935,-0.2935,0,-0.2882,-0.2933,-0.296,-0.3003,-0.3022,-0.3024,-0.3056,-0.3067,-0.3064,-0.3064,-0.3039,-0.2994,-0.2963,-0.2961,-0.2974,-0.2951,-0.2942,-0.2951,-0.2962,-0.2965,-0.2967,-0.2985,-0.2989,-0.2938,-0.2938,-0.2937,-0.2937,0,-0.2929,-0.2967,-0.299,-0.3048,-0.3077,-0.3098,-0.3127,-0.3141,-0.3132,-0.313,-0.3115,-0.307,-0.3044,-0.3034,-0.301,-0.3019,-0.3011,-0.2967,-0.2944,-0.2977,-0.2994,-0.2997,-0.2943,-0.2941,-0.294,-0.294,0,0,-0.2882,-0.2999,-0.2995,-0.3039,-0.3098,-0.3125,-0.3169,-0.3198,-0.3228,-0.3199,-0.3218,-0.3174,-0.3142,-0.3125,-0.309,-0.3078,-0.3096,-0.3039,-0.3036,-0.306,-0.3074,-0.2983,-0.2978,-0.3044,-0.3045,-0.3045,-0.309,0,-0.2889,-0.2981,-0.3033,-0.31,-0.3148,-0.3182,-0.3233,-0.3265,-0.3269,-0.3291,-0.3245,-0.3239,-0.3181,-0.3166,-0.3146,-0.3102,-0.3102,-0.309,-0.3037,-0.3037,-0.2951,-0.2977,-0.2838,-0.2857,-0.3092,-0.3093,-0.3093,0,-0.2888,-0.2961,-0.3036,-0.3149,-0.3172,-0.3215,-0.3287,-0.3327,-0.3366,-0.3369,-0.3349,-0.332,-0.3304,-0.3243,-0.3193,-0.3184,-0.3144,-0.3109,-0.3109,-0.3001,-0.2949,-0.2855,-0.2853,-0.2823,-0.3097,-0.3097,-0.3097,0,-0.2828,-0.2944,-0.3006,-0.3042,-0.3178,-0.3214,-0.3269,-0.3335,-0.3375,-0.3408,-0.3426,-0.3397,-0.3371,-0.3315,-0.3225,-0.3216,-0.3167,-0.3142,-0.3034,-0.3029,-0.289,-0.2871,-0.2848,-0.3116,-0.3116,-0.3116,-0.3115,0,-0.2796,-0.2841,-0.2989,-0.3025,-0.3112,-0.3203,-0.3277,-0.333,-0.3403,-0.3429,-0.3448,-0.3429,-0.338,-0.3333,-0.3265,-0.3148,-0.3189,-0.3055,-0.3025,-0.2911,-0.2894,-0.2842,-0.2849,-0.3117,-0.3117,-0.3117,-0.3116,0,-0.2709,-0.2796,-0.2895,-0.3047,-0.3089,-0.3148,-0.3281,-0.3325,-0.3408,-0.344,-0.3448,-0.346,-0.3378,-0.3334,-0.3246,-0.318,-0.3027,-0.3041,-0.2931,-0.2885,-0.2753,-0.2769,-0.2711,-0.2639,-0.296,-0.2958,-0.2956,0,-0.2672,-0.2715,-0.2893,-0.2935,-0.2997,-0.31,-0.3157,-0.3292,-0.3335,-0.3411,-0.3404,-0.338,-0.33,-0.3185,-0.3059,-0.2961,-0.2921,-0.2801,-0.2748,-0.2734,-0.2732,-0.2739,-0.2684,-0.2618,-0.2613,-0.261,-0.2607,0,-0.26,-0.2667,-0.2742,-0.2844,-0.2915,-0.2998,-0.3088,-0.313,-0.3247,-0.3268,-0.3229,-0.3182,-0.3113,-0.2921,-0.2833,-0.2743,-0.2717,-0.2722,-0.2719,-0.2473,-0.2468,-0.2386,-0.2647,-0.2574,-0.2577,-0.258,-0.2582,-0.2583,-0.2518,-0.2556,-0.2639,-0.272,-0.2791,-0.281,-0.2801,-0.2878,-0.2884,-0.285,-0.2947,-0.284,-0.279,-0.2619,-0.256,-0.2414,-0.2471,-0.2331,-0.2364,-0.2385,-0.2263,-0.2472,-0.2343,-0.2345,-0.2347,-0.2348,-0.2349,0,-0.239,-0.2429,-0.2497,-0.2559,-0.2546,-0.264,-0.2677,-0.2607,-0.2507,-0.2551,-0.2489,-0.2426,-0.2287,-0.2287,-0.2174,-0.2091,-0.2058,-0.2038,-0.2025,-0.1993,-0.2176,-0.2103,-0.19,-0.19,-0.1901,-0.1901,-0.1901,-0.1901,-0.2314,-0.2305,-0.2351,-0.2277,-0.2298,-0.2193,-0.2154,-0.2058,-0.2047,-0.1914,-0.1914,-0.1995,-0.201,-0.211,-0.1998,-0.191,-0.1879,-0.1796,-0.1852,-0.1996,-0.2027,-0.2057,-0.199,-0.1767,-0.1767,-0.1585,-0.1583,-0.1582]},{"header":{"parameterUnit":"m.s-1","parameterCategory":2,"la1":30.2991,"la2":30.254,"lo1":-89.0895,"lo2":-89.0444,"dy":0.0017,"dx":0.0017,"nx":28,"ny":28,"refTime":"2024-07-27T09:00:00:Z","depth":"0","parameterNumber":3,"parameterNumberName":"V-component_of_CURRENTS"},"data":[0,0,0,0,0,0,0,0,0,0,0,0,0,0,0,0,0,0,0,0,0,0,0,0,0,0,0,0,0,0,0,0,0,0,0,0,0,0,0,0,0,0,0,0,0,0,0,0,0,0,0,0,0,0,0,0,0,0,-0.0432,-0.0431,0,-0.0332,-0.0331,-0.0329,-0.0302,-0.0303,-0.0304,-0.0305,-0.0133,-0.0127,-0.0122,0,0,0,0,0,0,0,0,0,0,0,0,0,-0.0438,-0.0439,-0.0432,-0.0431,-0.043,-0.0333,-0.0331,-0.0329,-0.0302,-0.0303,-0.0304,-0.0305,-0.0134,-0.0128,-0.0121,0,0,0,0,0,0,0,0,0,0,0,0,0,-0.0393,-0.0439,-0.0432,-0.0408,-0.0405,-0.0333,-0.0331,-0.0329,-0.0302,-0.0303,-0.0305,-0.0306,-0.0136,-0.0128,-0.012,-0.004,0,0,-0.0095,-0.0092,0,0,0,0,0,0,0,0,-0.0396,-0.0392,-0.0412,-0.041,-0.0406,-0.0335,-0.027,-0.023,-0.0301,-0.0336,-0.0305,-0.0307,-0.0195,-0.0182,-0.0155,-0.0032,-0.0025,-0.0094,-0.0089,-0.0086,-0.0084,0,0,0,0,0,0,0,-0.0399,-0.0396,-0.0388,-0.0412,-0.0408,-0.0348,-0.0344,-0.0261,-0.0254,-0.0333,-0.0332,-0.0328,-0.0193,-0.0163,-0.0151,-0.0022,-0.0095,-0.0087,-0.0082,-0.0079,0.0183,0.0185,0,0,0,0,0,0,-0.0427,-0.04,-0.0391,-0.0386,-0.0409,-0.0347,-0.0343,-0.0353,-0.0257,-0.0245,-0.0326,-0.0327,-0.0177,-0.016,-0.0145,-0.0052,-0.0086,-0.0078,-0.0074,0.0181,0.0184,0.0186,0,0,0,0,0,0,-0.0428,-0.0428,-0.0395,-0.0392,-0.0385,-0.0348,-0.0358,-0.035,-0.0322,-0.0253,-0.024,-0.0308,-0.0177,-0.0156,-0.0069,-0.0045,-0.0075,-0.0067,0.0179,0.0182,0.0185,0.0139,0,0,0,0,0,0,-0.0429,-0.0429,-0.0437,-0.0395,-0.0386,-0.035,-0.0356,-0.0347,-0.0319,-0.0319,-0.0231,-0.0218,-0.0177,-0.0082,-0.0061,-0.0034,-0.0061,0.0176,0.018,0.0184,0.0138,0.014,0.0142,0,0,0,0,0,-0.0429,-0.0436,-0.0438,-0.0436,-0.0402,-0.0349,-0.0337,-0.0312,-0.0317,-0.0294,-0.0241,-0.022,-0.0043,-0.0073,-0.005,-0.002,0.0175,0.0179,0.0184,0.0137,0.014,0.0142,0,0,0,0,0,0,-0.0434,-0.0433,-0.0434,-0.044,-0.0398,-0.0346,-0.0327,-0.0308,-0.0246,-0.0248,-0.0189,-0.0168,-0.0083,-0.0036,-0.0071,0.007,0.0069,0.0078,0.0025,0.0028,0.003,0.0031,-0.0054,0,0,0,0,0,-0.0443,-0.0455,-0.0425,-0.0425,-0.0411,-0.0367,-0.0342,-0.0322,-0.0269,-0.0246,-0.0186,-0.0116,-0.0041,0.0001,0.0076,0.0159,0.0193,0.0195,0.0197,0.0198,0.0218,0.0284,0.0293,0.0201,0.0201,0.0201,0,0,-0.0445,-0.0445,-0.0451,-0.0427,-0.0398,-0.0365,-0.0355,-0.0317,-0.028,-0.0232,-0.0159,-0.0101,-0.0016,0.0068,0.011,0.0107,0.0239,0.0204,0.0204,0.0224,0.029,0.0298,0.0306,0.0204,0.0204,0.0203,0,0,-0.0446,-0.0454,-0.0459,-0.0429,-0.0393,-0.0359,-0.0351,-0.0294,-0.0261,-0.0181,-0.0143,-0.0065,0.0046,0.0112,0.0159,0.0228,0.0247,0.0241,0.0253,0.0316,0.0323,0.033,0.0356,0.0366,0.024,0.024,0.024,0,-0.0444,-0.046,-0.0443,-0.0428,-0.0407,-0.0361,-0.0339,-0.0286,-0.0203,-0.0166,-0.0163,0.0007,0.0076,0.0181,0.0199,0.0234,0.025,0.0226,0.0315,0.0323,0.0331,0.0356,0.0367,0.0238,0.0238,0.0239,0.0239,0,-0.0444,-0.045,-0.0444,-0.0424,-0.0384,-0.0359,-0.0296,-0.0244,-0.0204,-0.0151,-0.0042,0.0051,0.0146,0.0181,0.0215,0.0308,0.0292,0.0303,0.0295,0.0336,0.0361,0.0373,0.0236,0.0236,0.0237,0.0237,0,0,-0.0464,-0.0453,-0.0453,-0.0456,-0.0389,-0.0364,-0.0287,-0.0211,-0.0176,-0.0075,-0.0016,0.0128,0.0162,0.022,0.027,0.0335,0.0398,0.0335,0.0339,0.0338,0.05,0.0504,0.0518,0.0404,0.0407,0.0409,0.0482,0,-0.0472,-0.0475,-0.045,-0.0432,-0.0428,-0.0359,-0.0297,-0.0215,-0.0141,-0.0068,0.0048,0.0124,0.0179,0.0206,0.0289,0.0376,0.0434,0.0376,0.0483,0.0487,0.0467,0.0535,0.0554,0.0623,0.0495,0.0497,0.0498,0,-0.0485,-0.0492,-0.0493,-0.0469,-0.0458,-0.0427,-0.0345,-0.0285,-0.0154,-0.0097,0.0012,0.0086,0.0221,0.0239,0.0425,0.0374,0.0441,0.0504,0.0508,0.0545,0.0517,0.0573,0.0651,0.0801,0.0518,0.0516,0.0515,0,-0.0537,-0.0524,-0.054,-0.0529,-0.0479,-0.0456,-0.0415,-0.0296,-0.0254,-0.0127,-0.0088,0.0079,0.0147,0.0282,0.0434,0.0419,0.0613,0.0605,0.0674,0.0673,0.0734,0.0734,0.0959,0.0731,0.0731,0.0731,0.0731,0,-0.0572,-0.0585,-0.0577,-0.059,-0.06,-0.0526,-0.0507,-0.0432,-0.0329,-0.0278,-0.0128,-0.0055,0.016,0.0298,0.0426,0.0599,0.0612,0.0703,0.0712,0.0716,0.0714,0.0882,0.0931,0.0734,0.0733,0.0733,0.0732,0,-0.0636,-0.0624,-0.0659,-0.0641,-0.0635,-0.0647,-0.0599,-0.0582,-0.0464,-0.0394,-0.036,-0.0151,0.003,0.0234,0.0456,0.058,0.0828,0.079,0.0764,0.0771,0.0966,0.1009,0.1228,0.1302,0.0881,0.0882,0.0883,0,-0.0669,-0.0699,-0.0734,-0.0768,-0.0771,-0.0775,-0.0774,-0.0668,-0.0633,-0.0448,-0.0419,-0.0223,-0.0075,0.0256,0.051,0.0743,0.0856,0.0891,0.0893,0.1012,0.1069,0.1094,0.1142,0.0941,0.0942,0.0943,0.0944,0,-0.0749,-0.0773,-0.0812,-0.0891,-0.0921,-0.0944,-0.092,-0.0902,-0.0757,-0.0674,-0.052,-0.0388,-0.0045,0.0269,0.0589,0.0726,0.0997,0.0915,0.1073,0.118,0.1193,0.1253,0.0824,0.0952,0.0951,0.095,0.095,0.095,-0.0815,-0.0879,-0.0945,-0.1013,-0.1056,-0.108,-0.1076,-0.1025,-0.0959,-0.0781,-0.0632,-0.04,0.01,0.0559,0.0727,0.11,0.1056,0.1211,0.1263,0.1284,0.1354,0.0925,0.1041,0.104,0.104,0.104,0.104,0,-0.0886,-0.096,-0.1053,-0.1126,-0.119,-0.1176,-0.1147,-0.1105,-0.1022,-0.0845,-0.0679,-0.0143,0.0311,0.0753,0.1301,0.1479,0.151,0.1557,0.1629,0.1667,0.1331,0.1335,0.1479,0.1479,0.1479,0.1479,0.1478,0.1478,-0.0925,-0.1039,-0.1095,-0.1219,-0.1264,-0.1284,-0.1256,-0.1171,-0.1023,-0.0731,-0.0424,-0.0166,0.0512,0.1383,0.1861,0.1871,0.2025,0.1974,0.2068,0.1864,0.1837,0.1811,0.1831,0.2077,0.2078,0.2393,0.2397,0.2399]}],[{"header":{"parameterUnit":"m.s-1","parameterCategory":2,"la1":30.2991,"la2":30.254,"lo1":-89.0895,"lo2":-89.0444,"dy":0.0017,"dx":0.0017,"nx":28,"ny":28,"refTime":"2024-07-27T09:00:00:Z","depth":"2","parameterNumber":2,"parameterNumberName":"U-component_of_CURRENTS"},"data":[0,0,0,0,0,0,0,0,0,0,0,0,0,0,0,0,0,0,0,0,0,0,0,0,0,0,0,0,0,0,0,0,0,0,0,0,0,0,0,0,0,0,0,0,0,0,0,0,0,0,0,0,0,0,0,0,0,0,-0.2721,-0.2721,0,-0.2702,-0.2701,-0.27,-0.2705,-0.2706,-0.2707,-0.2708,-0.2669,-0.2668,-0.2666,0,0,0,0,0,0,0,0,0,0,0,0,0,-0.2554,-0.2558,-0.2721,-0.2721,-0.2722,-0.2702,-0.2701,-0.27,-0.2705,-0.2706,-0.2707,-0.2708,-0.267,-0.2668,-0.2665,0,0,0,0,0,0,0,0,0,0,0,0,0,-0.2584,-0.2559,-0.2721,-0.2727,-0.2728,-0.2702,-0.2701,-0.27,-0.2704,-0.2706,-0.2707,-0.2709,-0.2671,-0.2668,-0.2665,-0.2615,0,0,-0.2656,-0.2655,0,0,0,0,0,0,0,0,-0.2582,-0.2589,-0.2726,-0.2727,-0.2728,-0.2714,-0.2629,-0.2673,-0.2704,-0.2705,-0.2708,-0.271,-0.2686,-0.2682,-0.2665,-0.2614,-0.2612,-0.2656,-0.2654,-0.2653,-0.2652,0,0,0,0,0,0,0,-0.258,-0.2589,-0.2706,-0.2726,-0.2727,-0.2661,-0.2668,-0.2636,-0.2681,-0.2705,-0.2708,-0.2717,-0.2686,-0.2668,-0.2664,-0.2611,-0.2656,-0.2653,-0.2651,-0.265,-0.2631,-0.2632,0,0,0,0,0,0,-0.2608,-0.2588,-0.2707,-0.2706,-0.2666,-0.2664,-0.2671,-0.2711,-0.2682,-0.2681,-0.2716,-0.2717,-0.2672,-0.2667,-0.2663,-0.2694,-0.2653,-0.265,-0.2648,-0.2629,-0.2631,-0.2632,0,0,0,0,0,0,-0.2605,-0.262,-0.2707,-0.265,-0.2658,-0.2668,-0.271,-0.271,-0.272,-0.2691,-0.2689,-0.2732,-0.2673,-0.2667,-0.2669,-0.2689,-0.2648,-0.2646,-0.2628,-0.263,-0.2631,-0.2697,0,0,0,0,0,0,-0.26,-0.2619,-0.265,-0.2654,-0.2663,-0.2721,-0.2709,-0.2708,-0.2726,-0.2728,-0.2703,-0.27,-0.2674,-0.2674,-0.2666,-0.2684,-0.2643,-0.2626,-0.2629,-0.2631,-0.2693,-0.2701,-0.2708,0,0,0,0,0,-0.2595,-0.2644,-0.2653,-0.2667,-0.2709,-0.2723,-0.2721,-0.2724,-0.2726,-0.2737,-0.2726,-0.2702,-0.2684,-0.2672,-0.2663,-0.2681,-0.2625,-0.2628,-0.2631,-0.269,-0.27,-0.2707,0,0,0,0,0,0,-0.2569,-0.265,-0.2659,-0.2726,-0.2735,-0.2728,-0.274,-0.2738,-0.2733,-0.2742,-0.2708,-0.2704,-0.2712,-0.269,-0.2678,-0.2685,-0.2654,-0.2655,-0.2702,-0.2711,-0.2718,-0.2728,-0.2641,0,0,0,0,0,-0.2583,-0.2652,-0.2687,-0.2731,-0.2748,-0.2743,-0.2748,-0.2755,-0.2754,-0.2755,-0.2733,-0.2719,-0.2709,-0.2708,-0.2688,-0.2686,-0.2669,-0.2696,-0.2703,-0.2709,-0.2713,-0.2696,-0.2701,-0.2642,-0.2642,-0.2642,0,0,-0.2574,-0.2633,-0.2663,-0.2731,-0.2736,-0.2765,-0.2749,-0.2776,-0.2796,-0.2749,-0.2762,-0.2737,-0.2714,-0.2717,-0.2719,-0.2706,-0.2724,-0.2712,-0.2718,-0.2719,-0.2699,-0.2705,-0.271,-0.2644,-0.2643,-0.2643,0,0,-0.2591,-0.2654,-0.2712,-0.274,-0.2785,-0.2788,-0.2807,-0.2816,-0.2823,-0.2827,-0.2806,-0.2801,-0.2773,-0.2765,-0.2756,-0.279,-0.2758,-0.2789,-0.2835,-0.2818,-0.2822,-0.2826,-0.2839,-0.2844,-0.2797,-0.2797,-0.2797,0,-0.2573,-0.2661,-0.2717,-0.2774,-0.2794,-0.281,-0.2841,-0.2854,-0.2856,-0.2858,-0.2849,-0.2817,-0.2796,-0.2806,-0.2823,-0.2806,-0.2799,-0.2802,-0.2826,-0.2829,-0.2832,-0.2844,-0.2848,-0.2801,-0.28,-0.28,-0.28,0,-0.2629,-0.2693,-0.2725,-0.2815,-0.2842,-0.2873,-0.2909,-0.2929,-0.2931,-0.2926,-0.2932,-0.29,-0.2883,-0.288,-0.286,-0.2875,-0.2868,-0.2832,-0.2803,-0.2842,-0.2853,-0.2856,-0.2806,-0.2805,-0.2804,-0.2803,0,0,-0.2593,-0.2738,-0.2744,-0.2787,-0.2869,-0.2891,-0.2945,-0.2976,-0.3017,-0.2998,-0.3024,-0.2995,-0.2973,-0.2963,-0.2939,-0.293,-0.2949,-0.2897,-0.2895,-0.2908,-0.2937,-0.2807,-0.2797,-0.2913,-0.2914,-0.2914,-0.2947,0,-0.2603,-0.2707,-0.278,-0.2845,-0.2891,-0.2941,-0.2997,-0.3034,-0.3053,-0.3086,-0.3057,-0.3064,-0.301,-0.301,-0.2992,-0.2956,-0.2955,-0.2945,-0.2899,-0.2898,-0.2774,-0.2794,-0.2595,-0.2595,-0.2949,-0.295,-0.295,0,-0.2623,-0.2697,-0.2767,-0.2882,-0.2908,-0.2951,-0.3034,-0.3083,-0.3145,-0.3164,-0.3162,-0.3146,-0.3135,-0.3085,-0.3039,-0.3034,-0.2996,-0.2964,-0.2964,-0.2816,-0.277,-0.2608,-0.2586,-0.2954,-0.2954,-0.2953,-0.2953,0,-0.255,-0.268,-0.2732,-0.2769,-0.2903,-0.2941,-0.3001,-0.3087,-0.3142,-0.3201,-0.3233,-0.3221,-0.3205,-0.3157,-0.306,-0.3065,-0.3002,-0.3,-0.2855,-0.2848,-0.2654,-0.2626,-0.2973,-0.2973,-0.2973,-0.2973,-0.2972,0,-0.2529,-0.2575,-0.2708,-0.2732,-0.2801,-0.2914,-0.2994,-0.3055,-0.3173,-0.3203,-0.3253,-0.3236,-0.3215,-0.3162,-0.3097,-0.2959,-0.3021,-0.2865,-0.2836,-0.2673,-0.2649,-0.2931,-0.2926,-0.2974,-0.2974,-0.2973,-0.2973,0,-0.2449,-0.2533,-0.2594,-0.2726,-0.2763,-0.2806,-0.2966,-0.3022,-0.3157,-0.3199,-0.3213,-0.3253,-0.3158,-0.3126,-0.3042,-0.2977,-0.2883,-0.2818,-0.2639,-0.2586,-0.2756,-0.2755,-0.2715,-0.271,-0.2706,-0.2703,-0.27,0,-0.2426,-0.2452,-0.2547,-0.2563,-0.2618,-0.2719,-0.2774,-0.2953,-0.301,-0.3143,-0.3123,-0.3114,-0.3012,-0.2891,-0.2774,-0.2674,-0.2739,-0.245,-0.241,-0.2748,-0.2725,-0.273,-0.2733,-0.221,-0.2204,-0.2199,-0.2194,0,-0.2361,-0.2384,-0.2406,-0.2445,-0.2482,-0.2551,-0.2645,-0.2692,-0.2864,-0.2901,-0.2869,-0.2823,-0.2752,-0.2525,-0.2442,-0.2347,-0.2457,-0.2337,-0.2716,-0.2288,-0.2269,-0.2248,-0.2268,-0.2147,-0.2152,-0.2155,-0.2158,-0.2159,-0.2267,-0.2251,-0.2263,-0.2288,-0.2326,-0.2328,-0.2319,-0.2408,-0.2426,-0.2439,-0.2517,-0.2402,-0.2421,-0.2154,-0.2034,-0.1967,-0.2132,-0.2057,-0.2076,-0.2099,-0.2016,-0.1988,-0.1802,-0.1804,-0.1807,-0.1809,-0.181,0,-0.2126,-0.2117,-0.2123,-0.2101,-0.2064,-0.2164,-0.2187,-0.2133,-0.2038,-0.2081,-0.204,-0.1837,-0.1723,-0.175,-0.1587,-0.1573,-0.1585,-0.1501,-0.1524,-0.157,-0.1612,-0.1506,-0.1156,-0.1154,-0.1152,-0.1151,0,0,-0.2034,-0.1959,-0.1957,-0.1833,-0.1836,-0.1729,-0.1691,-0.1614,-0.1609,-0.1469,-0.1441,-0.1591,-0.168,-0.1407,-0.1357,-0.1229,-0.1383,-0.1166,-0.1687,-0.1757,-0.1796,-0.1923,-0.181,0,0,0,0,0]},{"header":{"parameterUnit":"m.s-1","parameterCategory":2,"la1":30.2991,"la2":30.254,"lo1":-89.0895,"lo2":-89.0444,"dy":0.0017,"dx":0.0017,"nx":28,"ny":28,"refTime":"2024-07-27T09:00:00:Z","depth":"2","parameterNumber":3,"parameterNumberName":"V-component_of_CURRENTS"},"data":[0,0,0,0,0,0,0,0,0,0,0,0,0,0,0,0,0,0,0,0,0,0,0,0,0,0,0,0,0,0,0,0,0,0,0,0,0,0,0,0,0,0,0,0,0,0,0,0,0,0,0,0,0,0,0,0,0,0,-0.0467,-0.0467,0,-0.0378,-0.0377,-0.0375,-0.0344,-0.0344,-0.0345,-0.0346,-0.0183,-0.0178,-0.0173,0,0,0,0,0,0,0,0,0,0,0,0,0,-0.0437,-0.0439,-0.0468,-0.0467,-0.0466,-0.0378,-0.0377,-0.0375,-0.0343,-0.0344,-0.0345,-0.0346,-0.0185,-0.0179,-0.0173,0,0,0,0,0,0,0,0,0,0,0,0,0,-0.0406,-0.0439,-0.0468,-0.0443,-0.044,-0.0379,-0.0377,-0.0375,-0.0343,-0.0344,-0.0346,-0.0347,-0.0187,-0.0179,-0.0172,-0.0103,0,0,-0.0149,-0.0146,0,0,0,0,0,0,0,0,-0.0408,-0.0406,-0.0447,-0.0445,-0.0442,-0.0377,-0.0307,-0.0282,-0.0343,-0.0375,-0.0346,-0.0347,-0.0243,-0.0231,-0.0206,-0.0095,-0.0089,-0.0148,-0.0144,-0.014,-0.0138,0,0,0,0,0,0,0,-0.041,-0.0409,-0.0427,-0.0447,-0.0443,-0.0377,-0.0375,-0.0301,-0.0299,-0.0373,-0.0371,-0.0368,-0.0241,-0.0214,-0.0202,-0.0086,-0.0148,-0.0142,-0.0137,-0.0134,0.0105,0.0107,0,0,0,0,0,0,-0.0439,-0.0412,-0.043,-0.0425,-0.0432,-0.0378,-0.0375,-0.0393,-0.0302,-0.0291,-0.0367,-0.0367,-0.0226,-0.0211,-0.0196,-0.0111,-0.0141,-0.0133,-0.0129,0.0103,0.0105,0.0107,0,0,0,0,0,0,-0.0439,-0.0442,-0.0434,-0.0418,-0.0414,-0.038,-0.0398,-0.0391,-0.0364,-0.0299,-0.0286,-0.035,-0.0226,-0.0207,-0.0128,-0.0105,-0.013,-0.0123,0.0101,0.0104,0.0106,0.006,0,0,0,0,0,0,-0.0438,-0.0443,-0.0455,-0.0422,-0.0416,-0.0396,-0.0397,-0.0388,-0.0363,-0.0362,-0.0279,-0.0266,-0.0226,-0.014,-0.0121,-0.0095,-0.0117,0.0099,0.0102,0.0105,0.0059,0.0061,0.0062,0,0,0,0,0,-0.0438,-0.0452,-0.0456,-0.0458,-0.0438,-0.0396,-0.0385,-0.036,-0.0362,-0.0342,-0.029,-0.0268,-0.0104,-0.0132,-0.011,-0.0082,0.0097,0.0101,0.0105,0.0059,0.0061,0.0062,0,0,0,0,0,0,-0.0432,-0.045,-0.0454,-0.047,-0.0437,-0.0393,-0.0376,-0.0357,-0.03,-0.0299,-0.0242,-0.0222,-0.0144,-0.0099,-0.0131,-0.0,0.0,0.0009,-0.0043,-0.004,-0.0039,-0.004,-0.0111,0,0,0,0,0,-0.0443,-0.0468,-0.045,-0.0458,-0.0449,-0.041,-0.0389,-0.037,-0.0322,-0.03,-0.0243,-0.0176,-0.0106,-0.0067,0.0002,0.0078,0.0113,0.0113,0.0114,0.0115,0.0131,0.0201,0.0209,0.0121,0.0121,0.0121,0,0,-0.0442,-0.0454,-0.0466,-0.0459,-0.0435,-0.0412,-0.0399,-0.0368,-0.0335,-0.0287,-0.022,-0.0165,-0.0084,-0.0007,0.0033,0.0031,0.0154,0.012,0.0119,0.0136,0.0206,0.0214,0.0221,0.0124,0.0123,0.0123,0,0,-0.0445,-0.0464,-0.0481,-0.0459,-0.0434,-0.0407,-0.0401,-0.0352,-0.0319,-0.0247,-0.0209,-0.0136,-0.0032,0.003,0.0074,0.0136,0.0159,0.015,0.0158,0.0224,0.0231,0.0238,0.0263,0.0273,0.0149,0.0149,0.0149,0,-0.0441,-0.0473,-0.0468,-0.0463,-0.0449,-0.041,-0.0397,-0.0347,-0.0273,-0.0238,-0.0231,-0.0071,-0.0006,0.0091,0.0107,0.014,0.0159,0.0134,0.0223,0.023,0.0238,0.0263,0.0274,0.0148,0.0148,0.0148,0.0148,0,-0.0453,-0.0469,-0.0469,-0.0469,-0.0437,-0.0421,-0.0366,-0.0319,-0.028,-0.023,-0.0127,-0.0036,0.0054,0.0087,0.0118,0.0207,0.0194,0.021,0.0206,0.0244,0.0268,0.028,0.0145,0.0146,0.0146,0.0147,0,0,-0.0483,-0.0484,-0.0487,-0.0496,-0.0446,-0.0431,-0.0362,-0.0298,-0.0264,-0.0169,-0.011,0.0023,0.006,0.0115,0.0165,0.0231,0.0294,0.0236,0.024,0.024,0.0404,0.0384,0.0396,0.0309,0.0312,0.0314,0.0386,0,-0.05,-0.0518,-0.0498,-0.0495,-0.0501,-0.0438,-0.0383,-0.031,-0.0239,-0.0166,-0.0053,0.0022,0.0073,0.0104,0.0185,0.0272,0.0329,0.0271,0.0388,0.0391,0.0353,0.0412,0.0384,0.0446,0.0398,0.04,0.0402,0,-0.0529,-0.0544,-0.0554,-0.0539,-0.0533,-0.0509,-0.0437,-0.0383,-0.0256,-0.0196,-0.0089,-0.0014,0.0115,0.0138,0.0319,0.027,0.0338,0.0401,0.0406,0.0419,0.0397,0.0412,0.047,0.0423,0.0421,0.0419,0.0418,0,-0.0588,-0.0588,-0.0609,-0.0602,-0.0563,-0.0541,-0.0507,-0.0395,-0.0353,-0.0224,-0.0183,-0.002,0.0052,0.0185,0.0328,0.0319,0.0504,0.0507,0.0555,0.0552,0.0573,0.0568,0.0632,0.0632,0.0631,0.0631,0.0631,0,-0.0633,-0.0652,-0.0646,-0.0662,-0.0681,-0.0612,-0.0598,-0.0525,-0.0418,-0.0373,-0.0221,-0.015,0.0066,0.0197,0.0322,0.0478,0.0504,0.0576,0.0587,0.0553,0.0545,0.0568,0.0559,0.0634,0.0633,0.0633,0.0632,0,-0.0699,-0.0689,-0.0732,-0.072,-0.0718,-0.0734,-0.0691,-0.0674,-0.0553,-0.0484,-0.0449,-0.0241,-0.0069,0.0128,0.0347,0.0457,0.0611,0.065,0.0575,0.0577,0.0609,0.0598,0.0721,0.0722,0.0722,0.0722,0.0722,0,-0.0733,-0.0766,-0.0809,-0.0845,-0.0847,-0.0859,-0.0863,-0.0761,-0.0724,-0.0544,-0.0514,-0.0324,-0.0185,0.0126,0.0362,0.0581,0.0597,0.0668,0.067,0.0629,0.0627,0.0615,0.0604,0.0666,0.0666,0.0666,0.0666,0,-0.0814,-0.0838,-0.0878,-0.0959,-0.0995,-0.1027,-0.1007,-0.099,-0.085,-0.0766,-0.0614,-0.0488,-0.0175,0.0095,0.0386,0.0508,0.0637,0.0667,0.0682,0.0638,0.0581,0.0577,0.0568,0.0664,0.0664,0.0664,0.0664,0.0664,-0.0878,-0.0939,-0.1001,-0.1073,-0.112,-0.1147,-0.1147,-0.1098,-0.1031,-0.0848,-0.072,-0.0501,-0.0211,0.02,0.0416,0.0622,0.0622,0.0688,0.0688,0.0688,0.0659,0.0605,0.0685,0.0685,0.0685,0.0685,0.0686,0,-0.0947,-0.1013,-0.1101,-0.1172,-0.123,-0.1229,-0.1207,-0.1159,-0.1071,-0.0912,-0.0746,-0.0439,-0.0129,0.0158,0.0487,0.0677,0.0677,0.0696,0.0679,0.0679,0.068,0.065,0.0674,0.0675,0.0675,0.0676,0,0,-0.0983,-0.1085,-0.1133,-0.1241,-0.1284,-0.1305,-0.1281,-0.1187,-0.1048,-0.0887,-0.0716,-0.0478,-0.012,0.0113,0.0364,0.0536,0.0551,0.0537,0.0526,0.0476,0.0475,0.0654,0.0606,0,0,0,0,0]}],[{"header":{"parameterUnit":"m.s-1","parameterCategory":2,"la1":30.2991,"la2":30.254,"lo1":-89.0895,"lo2":-89.0444,"dy":0.0017,"dx":0.0017,"nx":28,"ny":28,"refTime":"2024-07-27T09:00:00:Z","depth":"4","parameterNumber":2,"parameterNumberName":"U-component_of_CURRENTS"},"data":[0,0,0,0,0,0,0,0,0,0,0,0,0,0,0,0,0,0,0,0,0,0,0,0,0,0,0,0,0,0,0,0,0,0,0,0,0,0,0,0,0,0,0,0,0,0,0,0,0,0,0,0,0,0,0,0,0,0,-0.0634,-0.0635,0,-0.0732,-0.0734,-0.0735,-0.0795,-0.0795,-0.0795,-0.0796,-0.0836,-0.0837,-0.0838,0,0,0,0,0,0,0,0,0,0,0,0,0,-0.0638,-0.0637,-0.0634,-0.0635,-0.0636,-0.0732,-0.0734,-0.0735,-0.0795,-0.0795,-0.0796,-0.0796,-0.0836,-0.0837,-0.0838,0,0,0,0,0,0,0,0,0,0,0,0,0,-0.0678,-0.0637,-0.0634,-0.0676,-0.0681,-0.0732,-0.0734,-0.0736,-0.0795,-0.0795,-0.0796,-0.0796,-0.0836,-0.0837,-0.0838,-0.0843,0,0,-0.0843,-0.0843,0,0,0,0,0,0,0,0,-0.0675,-0.0678,-0.0669,-0.0673,-0.0679,-0.075,-0.075,-0.0768,-0.0795,-0.0754,-0.0796,-0.0796,-0.0801,-0.0805,-0.0827,-0.0845,-0.0847,-0.0843,-0.0844,-0.0844,-0.0845,0,0,0,0,0,0,0,-0.0672,-0.0675,-0.0675,-0.067,-0.0676,-0.0738,-0.0743,-0.0755,-0.0775,-0.0757,-0.0762,-0.0769,-0.0803,-0.0825,-0.0828,-0.0848,-0.0843,-0.0844,-0.0845,-0.0846,-0.0958,-0.096,0,0,0,0,0,0,-0.0648,-0.0671,-0.0672,-0.0678,-0.0675,-0.0737,-0.0743,-0.0728,-0.0777,-0.0784,-0.0769,-0.0772,-0.0823,-0.0826,-0.0829,-0.0951,-0.0844,-0.0846,-0.0847,-0.0956,-0.0959,-0.0961,0,0,0,0,0,0,-0.0648,-0.0647,-0.0668,-0.0677,-0.0684,-0.0736,-0.072,-0.073,-0.0768,-0.0786,-0.0793,-0.0797,-0.0823,-0.0827,-0.0857,-0.0948,-0.0846,-0.0848,-0.0954,-0.0957,-0.096,-0.112,0,0,0,0,0,0,-0.0647,-0.0645,-0.0624,-0.0674,-0.0682,-0.0708,-0.072,-0.0732,-0.077,-0.0775,-0.0811,-0.0815,-0.0823,-0.0855,-0.0859,-0.0948,-0.0849,-0.0951,-0.0955,-0.0959,-0.1112,-0.1129,-0.1143,0,0,0,0,0,-0.0647,-0.0622,-0.0622,-0.0623,-0.0651,-0.0709,-0.072,-0.076,-0.0771,-0.0793,-0.0818,-0.0815,-0.0884,-0.0857,-0.0861,-0.0954,-0.0949,-0.0954,-0.0959,-0.1106,-0.1126,-0.1142,0,0,0,0,0,0,-0.0642,-0.0627,-0.0628,-0.0607,-0.0657,-0.0718,-0.0736,-0.0767,-0.0807,-0.0808,-0.0828,-0.0833,-0.0911,-0.0886,-0.0856,-0.0994,-0.0922,-0.0928,-0.1033,-0.1051,-0.1066,-0.1052,-0.085,0,0,0,0,0,-0.0621,-0.0581,-0.0618,-0.0608,-0.0627,-0.0684,-0.071,-0.0743,-0.0785,-0.0805,-0.0835,-0.0868,-0.0932,-0.0949,-0.0985,-0.1035,-0.1021,-0.1098,-0.1113,-0.1126,-0.1116,-0.1159,-0.1178,-0.0977,-0.0977,-0.0977,0,0,-0.064,-0.0606,-0.0603,-0.0602,-0.064,-0.0675,-0.0702,-0.0749,-0.0797,-0.0799,-0.0867,-0.0923,-0.0957,-0.1044,-0.1075,-0.1033,-0.1184,-0.1132,-0.1144,-0.1126,-0.1166,-0.1186,-0.1203,-0.098,-0.0979,-0.0979,0,0,-0.0642,-0.0611,-0.0588,-0.0613,-0.0641,-0.0675,-0.0691,-0.0762,-0.0812,-0.0892,-0.0923,-0.1011,-0.1084,-0.1138,-0.1176,-0.1277,-0.1271,-0.1309,-0.1371,-0.1416,-0.1433,-0.1448,-0.1494,-0.1511,-0.1307,-0.1308,-0.1308,0,-0.0679,-0.0619,-0.0607,-0.0599,-0.063,-0.0675,-0.0714,-0.0768,-0.0847,-0.0913,-0.0927,-0.112,-0.1138,-0.1275,-0.1321,-0.1318,-0.1336,-0.1311,-0.1438,-0.1452,-0.1464,-0.1507,-0.1524,-0.1316,-0.1315,-0.1314,-0.1313,0,-0.0665,-0.0634,-0.0635,-0.0619,-0.0659,-0.0697,-0.0767,-0.0828,-0.0906,-0.0989,-0.1163,-0.123,-0.1347,-0.1393,-0.1393,-0.1517,-0.1504,-0.1465,-0.1396,-0.1494,-0.1534,-0.1549,-0.1328,-0.1325,-0.1322,-0.132,0,0,-0.0719,-0.0644,-0.0653,-0.0631,-0.0672,-0.0703,-0.0795,-0.0908,-0.0998,-0.1128,-0.1293,-0.1425,-0.1499,-0.154,-0.1584,-0.162,-0.1738,-0.1583,-0.1582,-0.1637,-0.1855,-0.1676,-0.1674,-0.1734,-0.1736,-0.1739,-0.1862,0,-0.0731,-0.0714,-0.0676,-0.0692,-0.0699,-0.0755,-0.0846,-0.0957,-0.1085,-0.1246,-0.1396,-0.1566,-0.1547,-0.1656,-0.1692,-0.174,-0.1779,-0.1708,-0.1742,-0.1742,-0.1578,-0.1685,-0.1747,-0.1873,-0.1876,-0.1879,-0.188,0,-0.0705,-0.07,-0.0749,-0.0713,-0.0733,-0.0755,-0.0906,-0.1036,-0.1263,-0.1365,-0.156,-0.1679,-0.1835,-0.1791,-0.1905,-0.187,-0.1863,-0.1874,-0.1879,-0.1653,-0.1588,-0.1742,-0.1906,-0.1904,-0.1902,-0.1901,-0.1899,0,-0.072,-0.0699,-0.0743,-0.0752,-0.0792,-0.0825,-0.0898,-0.1097,-0.1211,-0.1507,-0.1589,-0.1808,-0.1905,-0.1983,-0.1969,-0.1981,-0.2038,-0.2057,-0.1892,-0.1881,-0.1934,-0.1916,-0.2102,-0.2102,-0.2102,-0.2101,-0.2101,0,-0.0685,-0.0685,-0.0742,-0.076,-0.0846,-0.0883,-0.1039,-0.114,-0.132,-0.1459,-0.1684,-0.1757,-0.1942,-0.1988,-0.2023,-0.1972,-0.2076,-0.1916,-0.19,-0.2003,-0.1992,-0.1947,-0.1928,-0.2106,-0.2105,-0.2104,-0.2103,0,-0.0648,-0.0695,-0.072,-0.0793,-0.0848,-0.0943,-0.106,-0.1153,-0.1323,-0.1508,-0.1601,-0.1726,-0.1833,-0.1932,-0.2028,-0.1968,-0.1998,-0.1924,-0.2022,-0.2006,-0.1833,-0.182,-0.1884,-0.1879,-0.1874,-0.1871,-0.1867,0,-0.0599,-0.0652,-0.0799,-0.0851,-0.0864,-0.1015,-0.1122,-0.1229,-0.1279,-0.1446,-0.1472,-0.1612,-0.1712,-0.1735,-0.1823,-0.1924,-0.1861,-0.1867,-0.1879,-0.1832,-0.1811,-0.1806,-0.1799,-0.186,-0.1859,-0.1858,-0.1857,0,-0.0546,-0.0649,-0.0708,-0.0864,-0.093,-0.1027,-0.1103,-0.111,-0.1265,-0.1363,-0.1385,-0.1482,-0.1547,-0.1668,-0.168,-0.1735,-0.1902,-0.1821,-0.1833,-0.1846,-0.1804,-0.1786,-0.1785,-0.1841,-0.1843,-0.1845,-0.1846,0,-0.0543,-0.0572,-0.07,-0.0816,-0.0919,-0.0941,-0.1025,-0.1029,-0.1113,-0.1231,-0.1226,-0.1396,-0.1514,-0.1556,-0.158,-0.1622,-0.1663,-0.1642,-0.1665,-0.1683,-0.155,-0.1463,-0.1393,0,0,0,0,0,-0.0512,-0.0531,-0.0615,-0.0704,-0.0795,-0.0841,-0.0948,-0.1014,-0.1135,-0.1134,-0.1168,-0.1264,-0.1356,-0.1411,-0.1433,-0.1491,-0.1645,-0.1503,-0.1626,-0.1754,-0.1772,-0.1629,0,0,0,0,0,0,-0.0489,-0.0542,-0.0574,-0.0594,-0.0629,-0.0692,-0.0758,-0.0843,-0.0843,-0.0988,-0.1063,-0.1168,-0.1289,-0.1341,-0.14,-0.1419,-0.147,-0.1594,-0.159,-0.1744,-0.176,-0.1775,-0.1634,0,0,0,0,0]},{"header":{"parameterUnit":"m.s-1","parameterCategory":2,"la1":30.2991,"la2":30.254,"lo1":-89.0895,"lo2":-89.0444,"dy":0.0017,"dx":0.0017,"nx":28,"ny":28,"refTime":"2024-07-27T09:00:00:Z","depth":"4","parameterNumber":3,"parameterNumberName":"V-component_of_CURRENTS"},"data":[0,0,0,0,0,0,0,0,0,0,0,0,0,0,0,0,0,0,0,0,0,0,0,0,0,0,0,0,0,0,0,0,0,0,0,0,0,0,0,0,0,0,0,0,0,0,0,0,0,0,0,0,0,0,0,0,0,0,-0.0104,-0.0104,0,-0.0108,-0.0108,-0.0108,-0.0051,-0.005,-0.0048,-0.0047,0.0007,0.0007,0.0007,0,0,0,0,0,0,0,0,0,0,0,0,0,-0.0034,-0.0036,-0.0104,-0.0104,-0.0104,-0.0108,-0.0108,-0.0108,-0.0051,-0.005,-0.0048,-0.0046,0.0006,0.0007,0.0007,0,0,0,0,0,0,0,0,0,0,0,0,0,-0.0052,-0.0036,-0.0104,-0.0078,-0.0076,-0.0108,-0.0108,-0.0108,-0.0051,-0.0049,-0.0048,-0.0046,0.0006,0.0007,0.0007,-0.0031,0,0,0.0008,0.0008,0,0,0,0,0,0,0,0,-0.0051,-0.0054,-0.0082,-0.008,-0.0078,-0.0079,-0.0064,-0.008,-0.0052,-0.0058,-0.0047,-0.0045,-0.002,-0.0017,-0.002,-0.0028,-0.0026,0.0008,0.0008,0.0008,0.0008,0,0,0,0,0,0,0,-0.005,-0.0053,-0.0103,-0.0082,-0.008,-0.0063,-0.0063,-0.0067,-0.0047,-0.0058,-0.0054,-0.0059,-0.0018,-0.002,-0.0018,-0.0025,0.0008,0.0008,0.0008,0.0008,-0.0045,-0.0046,0,0,0,0,0,0,-0.0058,-0.0053,-0.0103,-0.0103,-0.0062,-0.0066,-0.0066,-0.0079,-0.0048,-0.0043,-0.0061,-0.0057,-0.0022,-0.0018,-0.0016,-0.002,0.0008,0.0008,0.0009,-0.0043,-0.0045,-0.0047,0,0,0,0,0,0,-0.0056,-0.0062,-0.0103,-0.0079,-0.0083,-0.007,-0.0084,-0.008,-0.0074,-0.0052,-0.0044,-0.0058,-0.002,-0.0016,-0.0028,-0.0019,0.0009,0.0009,-0.0041,-0.0044,-0.0046,-0.0053,0,0,0,0,0,0,-0.0054,-0.0062,-0.0068,-0.008,-0.0085,-0.0132,-0.0086,-0.0082,-0.0082,-0.0076,-0.0048,-0.0041,-0.0018,-0.0029,-0.0027,-0.0018,0.0009,-0.0039,-0.0042,-0.0045,-0.0051,-0.0055,-0.0059,0,0,0,0,0,-0.0052,-0.0082,-0.0068,-0.0074,-0.0096,-0.0134,-0.0135,-0.0116,-0.0084,-0.0099,-0.0078,-0.0041,-0.0046,-0.003,-0.0028,-0.0018,-0.0038,-0.0041,-0.0045,-0.0049,-0.0054,-0.0059,0,0,0,0,0,0,-0.0059,-0.0079,-0.0064,-0.0098,-0.0115,-0.0125,-0.0135,-0.0122,-0.0118,-0.0105,-0.0069,-0.0063,-0.0065,-0.006,-0.0043,-0.0048,-0.0033,-0.0037,-0.0037,-0.0042,-0.0046,-0.0066,0.0009,0,0,0,0,0,-0.0064,-0.0083,-0.0103,-0.0127,-0.0137,-0.0133,-0.0141,-0.0137,-0.0139,-0.0133,-0.0115,-0.0098,-0.0083,-0.0077,-0.0074,-0.0086,-0.0054,-0.008,-0.0084,-0.0087,-0.0106,-0.0039,-0.0038,-0.0058,-0.0058,-0.0058,0,0,-0.0074,-0.0085,-0.0096,-0.0128,-0.0133,-0.0174,-0.0133,-0.016,-0.0191,-0.0131,-0.0156,-0.0115,-0.0093,-0.0097,-0.0096,-0.0086,-0.0067,-0.0092,-0.0094,-0.0112,-0.0043,-0.004,-0.0037,-0.0061,-0.006,-0.006,0,0,-0.012,-0.0114,-0.0152,-0.0172,-0.0195,-0.0201,-0.0211,-0.0227,-0.0227,-0.0255,-0.0204,-0.0169,-0.0171,-0.0138,-0.0122,-0.016,-0.0093,-0.015,-0.0179,-0.0113,-0.011,-0.0106,-0.0061,-0.0053,-0.0149,-0.0149,-0.0149,0,-0.0134,-0.0176,-0.017,-0.0216,-0.0238,-0.0217,-0.0272,-0.0283,-0.03,-0.0304,-0.0272,-0.0221,-0.0192,-0.0166,-0.0169,-0.0164,-0.0121,-0.015,-0.0114,-0.011,-0.0106,-0.006,-0.0052,-0.0149,-0.0149,-0.0149,-0.0149,0,-0.021,-0.0242,-0.0268,-0.0313,-0.0341,-0.0382,-0.0403,-0.0421,-0.0403,-0.0398,-0.0371,-0.0309,-0.0267,-0.0243,-0.0216,-0.0172,-0.0148,-0.0121,-0.0089,-0.0104,-0.0056,-0.0047,-0.015,-0.015,-0.015,-0.015,0,0,-0.0265,-0.0312,-0.0326,-0.035,-0.0394,-0.0429,-0.0483,-0.0521,-0.0541,-0.0504,-0.05,-0.0436,-0.0355,-0.0335,-0.0259,-0.0203,-0.0128,-0.0152,-0.0147,-0.0088,0.0016,0.0,0.0009,-0.0072,-0.0071,-0.007,0.0042,0,-0.0329,-0.0407,-0.0432,-0.0515,-0.0549,-0.056,-0.0618,-0.0643,-0.0632,-0.0625,-0.0523,-0.0482,-0.0403,-0.0342,-0.0273,-0.0156,-0.0105,-0.0162,0.0002,0.0006,0.0011,0.0018,-0.0066,0.0049,0.0051,0.0052,0.0054,0,-0.0412,-0.044,-0.0527,-0.0591,-0.0615,-0.0673,-0.0729,-0.0777,-0.0765,-0.0743,-0.0656,-0.0566,-0.0446,-0.0382,-0.0185,-0.0213,-0.0116,-0.0033,-0.0025,-0.0037,0.0006,0.0063,0.0071,0.0069,0.0068,0.0067,0.0066,0,-0.0439,-0.0521,-0.058,-0.0604,-0.0676,-0.0729,-0.0772,-0.0806,-0.084,-0.0788,-0.0766,-0.0614,-0.052,-0.0357,-0.0178,-0.016,0.0013,0.0066,0.0131,0.0131,0.0119,0.0115,0.0167,0.0167,0.0167,0.0167,0.0166,0,-0.0496,-0.055,-0.0593,-0.063,-0.0711,-0.0756,-0.0839,-0.0869,-0.0884,-0.0881,-0.08,-0.0722,-0.0508,-0.0374,-0.0203,-0.0013,0.0006,0.0118,0.016,0.011,0.0103,0.0127,0.0121,0.0171,0.017,0.0169,0.0169,0,-0.0528,-0.0557,-0.0625,-0.0697,-0.0731,-0.0784,-0.088,-0.0928,-0.0944,-0.0926,-0.0893,-0.0789,-0.0579,-0.0412,-0.0159,-0.0058,0.013,0.0172,0.0075,0.0111,0.0215,0.0206,0.03,0.0301,0.0301,0.0301,0.0301,0,-0.0545,-0.0587,-0.0667,-0.0702,-0.0744,-0.0817,-0.0884,-0.0941,-0.0948,-0.0926,-0.0887,-0.0752,-0.0634,-0.0323,-0.0141,0.0129,0.0155,0.0209,0.024,0.0197,0.0229,0.022,0.0212,0.0302,0.0302,0.0302,0.0302,0,-0.0578,-0.0616,-0.066,-0.0728,-0.0798,-0.0858,-0.0914,-0.0925,-0.0945,-0.0963,-0.0834,-0.0692,-0.0508,-0.0266,-0.0123,0.0088,0.0168,0.0214,0.0216,0.0247,0.0201,0.023,0.0221,0.0303,0.0303,0.0303,0.0303,0,-0.0599,-0.0622,-0.0684,-0.0744,-0.082,-0.0857,-0.0899,-0.0879,-0.0898,-0.0849,-0.078,-0.0619,-0.0517,-0.0287,-0.0108,0.0044,0.012,0.0162,0.0168,0.0169,0.0088,0.0007,0.0084,0,0,0,0,0,-0.0594,-0.0626,-0.0694,-0.0749,-0.0824,-0.0863,-0.0902,-0.0921,-0.0912,-0.0816,-0.0798,-0.0601,-0.0361,-0.0264,-0.0098,-0.0087,0.0132,0.0106,0.0179,0.0309,0.0308,0.0233,0,0,0,0,0,0,-0.0595,-0.0649,-0.0681,-0.074,-0.078,-0.0855,-0.0878,-0.0881,-0.0799,-0.0768,-0.0625,-0.0576,-0.0327,-0.044,-0.0095,-0.0053,0.001,0.0216,0.0219,0.031,0.0309,0.0308,0.023,0,0,0,0,0]}]]